AFR62HP LFBO-LFPG

Flight info

Callsign AFR62HP
Flight time 1h 11m
Altitude 32000
Route FISTO DCT POI DCT PEPAX UT182 KEPER
Aircraft A321/M-SDE2E3FGIJ1RWY/HB1

Departure

Time 2026-05-06 15:18
Airport Toulouse-Blagnac Airport (LFBO)

Arrival

Time 2026-05-06 16:30
Airport Charles de Gaulle International Airport (LFPG)
Time Latitude Longitude Altitude Speed Heading
2026-05-06 14:46 43.63034 1.37241 484 ft 0 kts 53°
2026-05-06 14:47 43.63034 1.37242 484 ft 0 kts 53°
2026-05-06 14:47 43.63034 1.37241 484 ft 0 kts 53°
2026-05-06 14:48 43.63034 1.37242 484 ft 0 kts 53°
2026-05-06 14:49 43.63034 1.37241 484 ft 0 kts 53°
2026-05-06 15:10 43.63026 1.37228 494 ft 4 kts 53°
2026-05-06 15:10 43.63009 1.37199 485 ft 4 kts 46°
2026-05-06 15:11 43.62989 1.37176 485 ft 4 kts 18°
2026-05-06 15:11 43.62973 1.37175 483 ft 0 kts 322°
2026-05-06 15:12 43.62975 1.37173 483 ft 0 kts 322°
2026-05-06 15:13 43.62982 1.37166 485 ft 4 kts 322°
2026-05-06 15:13 43.63007 1.37134 487 ft 6 kts 308°
2026-05-06 15:13 43.63012 1.37072 494 ft 8 kts 245°
2026-05-06 15:13 43.62977 1.37003 489 ft 10 kts 232°
2026-05-06 15:14 43.62927 1.36946 489 ft 11 kts 193°
2026-05-06 15:14 43.62857 1.36988 491 ft 12 kts 142°
2026-05-06 15:14 43.62789 1.37059 491 ft 13 kts 144°
2026-05-06 15:14 43.62715 1.37135 487 ft 14 kts 143°
2026-05-06 15:15 43.62636 1.37219 488 ft 15 kts 143°
2026-05-06 15:15 43.62551 1.37307 491 ft 16 kts 143°
2026-05-06 15:15 43.62461 1.37401 490 ft 17 kts 143°
2026-05-06 15:15 43.62366 1.37500 488 ft 18 kts 142°
2026-05-06 15:16 43.62268 1.37602 487 ft 17 kts 143°
2026-05-06 15:16 43.62180 1.37670 490 ft 15 kts 175°
2026-05-06 15:16 43.62125 1.37605 489 ft 6 kts 232°
2026-05-06 15:16 43.62096 1.37556 494 ft 8 kts 231°
2026-05-06 15:17 43.62089 1.37484 486 ft 9 kts 302°
2026-05-06 15:17 43.62136 1.37428 491 ft 0 kts 322°
2026-05-06 15:17 43.62316 1.37238 490 ft 69 kts 323°
2026-05-06 15:18 43.62860 1.36673 491 ft 124 kts 323°
2026-05-06 15:18 43.63666 1.35841 621 ft 156 kts 321°
2026-05-06 15:18 43.64541 1.35009 1349 ft 151 kts 321°
2026-05-06 15:18 43.65363 1.34124 1909 ft 150 kts 316°
2026-05-06 15:19 43.66171 1.33208 2489 ft 151 kts 314°
2026-05-06 15:19 43.66987 1.32282 3145 ft 152 kts 315°
2026-05-06 15:19 43.67813 1.31351 3728 ft 157 kts 315°
2026-05-06 15:19 43.68713 1.30338 3985 ft 178 kts 316°
2026-05-06 15:20 43.69729 1.29196 4166 ft 199 kts 316°
2026-05-06 15:20 43.70872 1.27915 4318 ft 225 kts 317°
2026-05-06 15:20 43.72233 1.26689 4666 ft 251 kts 336°
2026-05-06 15:20 43.73963 1.26081 5342 ft 260 kts 342°
2026-05-06 15:21 43.75740 1.25510 6111 ft 264 kts 342°
2026-05-06 15:21 43.77561 1.25042 6827 ft 271 kts 352°
2026-05-06 15:21 43.79462 1.24965 7555 ft 275 kts 354°
2026-05-06 15:21 43.81384 1.24908 8284 ft 278 kts 354°
2026-05-06 15:22 43.83330 1.24851 9002 ft 282 kts 354°
2026-05-06 15:22 43.85304 1.24792 9707 ft 285 kts 354°
2026-05-06 15:22 43.87311 1.24730 10214 ft 296 kts 354°
2026-05-06 15:22 43.89446 1.24656 10351 ft 318 kts 354°
2026-05-06 15:23 43.91723 1.24574 10574 ft 335 kts 355°
2026-05-06 15:23 43.94075 1.24493 11110 ft 341 kts 355°
2026-05-06 15:23 43.96457 1.24414 11770 ft 344 kts 355°
2026-05-06 15:23 43.98859 1.24337 12423 ft 347 kts 355°
2026-05-06 15:24 44.01287 1.24259 13071 ft 350 kts 355°
2026-05-06 15:24 44.03732 1.24181 13711 ft 353 kts 356°
2026-05-06 15:24 44.06201 1.24102 14262 ft 356 kts 356°
2026-05-06 15:24 44.08688 1.24018 14827 ft 359 kts 356°
2026-05-06 15:25 44.11189 1.23932 15401 ft 361 kts 356°
2026-05-06 15:25 44.13711 1.23843 15959 ft 364 kts 356°
2026-05-06 15:25 44.16250 1.23753 16500 ft 366 kts 355°
2026-05-06 15:25 44.18804 1.23664 17051 ft 368 kts 356°
2026-05-06 15:26 44.21376 1.23574 17566 ft 371 kts 356°
2026-05-06 15:26 44.23929 1.23488 18121 ft 372 kts 357°
2026-05-06 15:26 44.26522 1.23401 18621 ft 374 kts 356°
2026-05-06 15:26 44.29128 1.23312 19046 ft 377 kts 356°
2026-05-06 15:27 44.31761 1.23221 19458 ft 379 kts 357°
2026-05-06 15:27 44.34408 1.23129 19875 ft 382 kts 356°
2026-05-06 15:27 44.37074 1.23036 20255 ft 385 kts 356°
2026-05-06 15:27 44.39757 1.22942 20645 ft 387 kts 356°
2026-05-06 15:28 44.42461 1.22846 21047 ft 389 kts 356°
2026-05-06 15:28 44.45170 1.22694 21471 ft 390 kts 352°
2026-05-06 15:28 44.47834 1.22014 21857 ft 389 kts 342°
2026-05-06 15:28 44.50432 1.20920 22239 ft 391 kts 341°
2026-05-06 15:29 44.53044 1.19808 22630 ft 393 kts 341°
2026-05-06 15:29 44.55669 1.18692 23027 ft 396 kts 341°
2026-05-06 15:29 44.58312 1.17576 23428 ft 398 kts 341°
2026-05-06 15:29 44.60973 1.16454 23782 ft 400 kts 341°
2026-05-06 15:30 44.63639 1.15325 24194 ft 400 kts 342°
2026-05-06 15:30 44.66301 1.14197 24585 ft 400 kts 342°
2026-05-06 15:30 44.68972 1.13068 24959 ft 401 kts 342°
2026-05-06 15:30 44.71649 1.11934 25309 ft 403 kts 342°
2026-05-06 15:31 44.74336 1.10790 25639 ft 405 kts 342°
2026-05-06 15:31 44.77038 1.09637 25972 ft 406 kts 342°
2026-05-06 15:31 44.79748 1.08481 26308 ft 408 kts 342°
2026-05-06 15:32 44.85209 1.06148 27003 ft 412 kts 342°
2026-05-06 15:32 44.87959 1.04971 27369 ft 414 kts 342°
2026-05-06 15:32 44.90717 1.03789 27685 ft 415 kts 342°
2026-05-06 15:32 44.93487 1.02604 28010 ft 417 kts 342°
2026-05-06 15:33 44.96271 1.01410 28318 ft 419 kts 342°
2026-05-06 15:33 44.99065 1.00209 28638 ft 421 kts 342°
2026-05-06 15:33 45.01869 0.99000 28945 ft 422 kts 342°
2026-05-06 15:33 45.04682 0.97787 29260 ft 424 kts 342°
2026-05-06 15:34 45.07505 0.96569 29546 ft 425 kts 342°
2026-05-06 15:34 45.10340 0.95345 29819 ft 427 kts 342°
2026-05-06 15:34 45.13184 0.94116 30051 ft 428 kts 342°
2026-05-06 15:34 45.16040 0.92883 30238 ft 430 kts 342°
2026-05-06 15:35 45.18910 0.91642 30409 ft 432 kts 342°
2026-05-06 15:35 45.21794 0.90396 30595 ft 434 kts 343°
2026-05-06 15:35 45.24679 0.89148 30844 ft 434 kts 343°
2026-05-06 15:35 45.27566 0.87899 31061 ft 434 kts 342°
2026-05-06 15:36 45.30459 0.86645 31290 ft 435 kts 342°
2026-05-06 15:36 45.33355 0.85388 31509 ft 435 kts 342°
2026-05-06 15:36 45.35275 0.84552 31652 ft 436 kts 342°
2026-05-06 15:36 45.39117 0.82874 31884 ft 437 kts 342°
2026-05-06 15:37 45.41987 0.81623 31920 ft 426 kts 342°
2026-05-06 15:37 45.44804 0.80393 31911 ft 422 kts 342°
2026-05-06 15:37 45.50395 0.77950 31915 ft 420 kts 342°
2026-05-06 15:38 45.55066 0.75900 31910 ft 419 kts 342°
2026-05-06 15:38 45.60594 0.73473 31917 ft 418 kts 342°
2026-05-06 15:39 45.66159 0.71027 31902 ft 418 kts 342°
2026-05-06 15:39 45.71718 0.68579 31906 ft 418 kts 342°
2026-05-06 15:40 45.77273 0.66118 31902 ft 418 kts 342°
2026-05-06 15:40 45.82829 0.63656 31907 ft 418 kts 342°
2026-05-06 15:41 45.88390 0.61193 31907 ft 418 kts 342°
2026-05-06 15:41 45.93951 0.58721 31907 ft 418 kts 342°
2026-05-06 15:42 45.99475 0.56255 31916 ft 418 kts 343°
2026-05-06 15:42 46.05033 0.53784 31919 ft 418 kts 343°
2026-05-06 15:43 46.10582 0.51307 31918 ft 417 kts 343°
2026-05-06 15:43 46.16124 0.48815 31918 ft 417 kts 343°
2026-05-06 15:44 46.21666 0.46332 31933 ft 417 kts 343°
2026-05-06 15:44 46.27199 0.43842 31944 ft 416 kts 343°
2026-05-06 15:45 46.32726 0.41345 31942 ft 416 kts 343°
2026-05-06 15:45 46.38251 0.38842 31934 ft 416 kts 343°
2026-05-06 15:46 46.43774 0.36342 31937 ft 416 kts 343°
2026-05-06 15:46 46.49296 0.33837 31939 ft 415 kts 343°
2026-05-06 15:47 46.54811 0.31364 31934 ft 415 kts 346°
2026-05-06 15:47 46.60536 0.30707 31935 ft 415 kts
2026-05-06 15:48 46.66169 0.32297 31930 ft 416 kts 11°
2026-05-06 15:48 46.71815 0.34039 31939 ft 416 kts 11°
2026-05-06 15:49 46.77490 0.35774 31937 ft 417 kts 11°
2026-05-06 15:49 46.83161 0.37516 31945 ft 417 kts 11°
2026-05-06 15:50 46.88839 0.39263 31941 ft 417 kts 11°
2026-05-06 15:50 46.94514 0.41017 31950 ft 417 kts 11°
2026-05-06 15:51 47.00176 0.42775 31952 ft 416 kts 11°
2026-05-06 15:51 47.05852 0.44493 31935 ft 416 kts
2026-05-06 15:52 47.11608 0.44417 31931 ft 415 kts 350°
2026-05-06 15:52 47.17309 0.43007 31929 ft 416 kts 350°
2026-05-06 15:53 47.23014 0.41621 31946 ft 416 kts 351°
2026-05-06 15:53 47.28733 0.40225 31930 ft 416 kts 350°
2026-05-06 15:54 47.34451 0.38828 31932 ft 417 kts 350°
2026-05-06 15:54 47.40139 0.37435 31928 ft 417 kts 350°
2026-05-06 15:55 47.45872 0.36038 31938 ft 418 kts 350°
2026-05-06 15:55 47.51613 0.34625 31935 ft 419 kts 350°
2026-05-06 15:56 47.57361 0.33194 31950 ft 419 kts 350°
2026-05-06 15:56 47.63113 0.31757 31953 ft 419 kts 350°
2026-05-06 15:57 47.68867 0.30322 31952 ft 419 kts 350°
2026-05-06 15:57 47.74628 0.28908 31958 ft 419 kts 353°
2026-05-06 15:58 47.80431 0.29313 31957 ft 420 kts 13°
2026-05-06 15:58 47.85782 0.32766 31956 ft 422 kts 33°
2026-05-06 15:59 47.90582 0.37804 31963 ft 422 kts 34°
2026-05-06 15:59 47.95390 0.42868 31975 ft 423 kts 34°
2026-05-06 16:00 48.00219 0.47926 31206 ft 426 kts 34°
2026-05-06 16:00 48.02598 0.50418 30689 ft 421 kts 34°
2026-05-06 16:00 48.05007 0.52953 30180 ft 416 kts 34°
2026-05-06 16:01 48.07323 0.55393 29619 ft 410 kts 34°
2026-05-06 16:01 48.09639 0.57838 29119 ft 403 kts 34°
2026-05-06 16:01 48.11913 0.60238 28632 ft 397 kts 34°
2026-05-06 16:01 48.14148 0.62605 28141 ft 390 kts 34°
2026-05-06 16:02 48.16351 0.64937 27667 ft 385 kts 34°
2026-05-06 16:02 48.18524 0.67240 27211 ft 380 kts 34°
2026-05-06 16:02 48.20655 0.69507 26755 ft 373 kts 34°
2026-05-06 16:02 48.22752 0.71739 26335 ft 366 kts 34°
2026-05-06 16:03 48.24817 0.73934 25904 ft 362 kts 33°
2026-05-06 16:03 48.26868 0.76109 25487 ft 359 kts 34°
2026-05-06 16:03 48.28900 0.78272 25081 ft 358 kts 34°
2026-05-06 16:03 48.30925 0.80425 24695 ft 356 kts 33°
2026-05-06 16:04 48.32902 0.82649 24289 ft 355 kts 40°
2026-05-06 16:04 48.34617 0.85288 23894 ft 355 kts 49°
2026-05-06 16:04 48.36055 0.88415 23407 ft 372 kts 59°
2026-05-06 16:04 48.37260 0.91879 22896 ft 375 kts 61°
2026-05-06 16:05 48.38459 0.95354 22430 ft 374 kts 60°
2026-05-06 16:05 48.39660 0.98822 21959 ft 372 kts 61°
2026-05-06 16:05 48.40849 1.02268 21486 ft 370 kts 61°
2026-05-06 16:05 48.42032 1.05696 21020 ft 368 kts 61°
2026-05-06 16:06 48.43207 1.09111 20563 ft 366 kts 60°
2026-05-06 16:06 48.44377 1.12512 20102 ft 364 kts 60°
2026-05-06 16:06 48.45542 1.15893 19649 ft 362 kts 61°
2026-05-06 16:06 48.46694 1.19246 19196 ft 360 kts 61°
2026-05-06 16:07 48.47840 1.22585 18734 ft 357 kts 62°
2026-05-06 16:07 48.48976 1.25908 18289 ft 355 kts 60°
2026-05-06 16:07 48.50103 1.29208 17815 ft 353 kts 62°
2026-05-06 16:07 48.51227 1.32501 17362 ft 354 kts 62°
2026-05-06 16:08 48.52355 1.35799 16913 ft 353 kts 61°
2026-05-06 16:08 48.53482 1.39073 16460 ft 350 kts 61°
2026-05-06 16:08 48.54585 1.42273 16032 ft 347 kts 61°
2026-05-06 16:08 48.55691 1.45488 15610 ft 343 kts 61°
2026-05-06 16:09 48.56813 1.48651 15159 ft 339 kts 57°
2026-05-06 16:09 48.58182 1.51511 14780 ft 333 kts 47°
2026-05-06 16:09 48.59799 1.53987 14630 ft 331 kts 42°
2026-05-06 16:09 48.61464 1.56384 14418 ft 330 kts 42°
2026-05-06 16:10 48.63116 1.58773 14217 ft 329 kts 43°
2026-05-06 16:10 48.64758 1.61160 14019 ft 325 kts 42°
2026-05-06 16:10 48.66376 1.63521 13814 ft 322 kts 42°
2026-05-06 16:10 48.67985 1.65871 13601 ft 321 kts 43°
2026-05-06 16:11 48.69587 1.68210 13389 ft 319 kts 42°
2026-05-06 16:11 48.71180 1.70534 13195 ft 320 kts 42°
2026-05-06 16:11 48.72777 1.72863 12994 ft 318 kts 42°
2026-05-06 16:11 48.74374 1.75194 12810 ft 319 kts 43°
2026-05-06 16:12 48.75976 1.77537 12593 ft 321 kts 43°
2026-05-06 16:12 48.77580 1.79888 12391 ft 320 kts 42°
2026-05-06 16:12 48.79178 1.82227 12192 ft 319 kts 43°
2026-05-06 16:12 48.80772 1.84560 11989 ft 318 kts 43°
2026-05-06 16:13 48.82355 1.86884 11802 ft 316 kts 43°
2026-05-06 16:13 48.83935 1.89208 11590 ft 316 kts 43°
2026-05-06 16:13 48.85511 1.91527 11400 ft 314 kts 43°
2026-05-06 16:13 48.86982 1.93969 11196 ft 314 kts 52°
2026-05-06 16:14 48.88117 1.96796 11007 ft 314 kts 62°
2026-05-06 16:14 48.88868 1.99909 10810 ft 315 kts 73°
2026-05-06 16:14 48.89215 2.03193 10611 ft 316 kts 84°
2026-05-06 16:14 48.89400 2.06519 10415 ft 315 kts 82°
2026-05-06 16:15 48.89589 2.09830 10213 ft 313 kts 83°
2026-05-06 16:15 48.89771 2.13070 10067 ft 301 kts 83°
2026-05-06 16:15 48.89945 2.16189 9818 ft 292 kts 82°
2026-05-06 16:15 48.90119 2.19243 9676 ft 289 kts 83°
2026-05-06 16:16 48.90296 2.22294 9582 ft 290 kts 83°
2026-05-06 16:16 48.90473 2.25348 9412 ft 290 kts 84°
2026-05-06 16:16 48.90647 2.28382 9233 ft 289 kts 83°
2026-05-06 16:16 48.90818 2.31425 9034 ft 288 kts 83°
2026-05-06 16:17 48.90988 2.34452 8858 ft 287 kts 83°
2026-05-06 16:17 48.91156 2.37475 8682 ft 287 kts 82°
2026-05-06 16:17 48.91323 2.40488 8496 ft 285 kts 82°
2026-05-06 16:17 48.91492 2.43487 8316 ft 284 kts 83°
2026-05-06 16:18 48.91650 2.46474 8146 ft 283 kts 84°
2026-05-06 16:18 48.91734 2.49461 7946 ft 282 kts 86°
2026-05-06 16:18 48.91765 2.52445 7777 ft 281 kts 88°
2026-05-06 16:18 48.91779 2.55416 7600 ft 281 kts 87°
2026-05-06 16:19 48.91792 2.58383 7422 ft 281 kts 87°
2026-05-06 16:19 48.91809 2.61346 7244 ft 280 kts 86°
2026-05-06 16:19 48.91833 2.64297 7070 ft 280 kts 87°
2026-05-06 16:19 48.91862 2.67263 6889 ft 280 kts 87°
2026-05-06 16:20 48.91892 2.70218 6710 ft 280 kts 87°
2026-05-06 16:20 48.91922 2.73173 6531 ft 279 kts 87°
2026-05-06 16:20 48.91954 2.76077 6360 ft 278 kts 87°
2026-05-06 16:20 48.91985 2.79046 6177 ft 277 kts 89°
2026-05-06 16:21 48.92004 2.81976 5973 ft 276 kts 86°
2026-05-06 16:21 48.92031 2.84884 5807 ft 275 kts 86°
2026-05-06 16:21 48.92061 2.87788 5635 ft 274 kts 86°
2026-05-06 16:21 48.92096 2.90719 5078 ft 283 kts 87°
2026-05-06 16:22 48.92127 2.93677 4903 ft 274 kts 86°
2026-05-06 16:22 48.92203 2.96484 4840 ft 257 kts 77°
2026-05-06 16:22 48.92785 2.98926 4787 ft 237 kts 54°
2026-05-06 16:22 48.93787 3.00671 4732 ft 226 kts 35°
2026-05-06 16:23 48.95145 3.01796 4690 ft 220 kts 15°
2026-05-06 16:23 48.96586 3.02134 4642 ft 204 kts 357°
2026-05-06 16:23 48.97956 3.01754 4588 ft 200 kts 340°
2026-05-06 16:23 48.99169 3.00744 4538 ft 200 kts 323°
2026-05-06 16:24 49.00115 2.99199 4471 ft 201 kts 305°
2026-05-06 16:24 49.00770 2.97306 4431 ft 203 kts 298°
2026-05-06 16:24 49.01213 2.95265 4376 ft 206 kts 280°
2026-05-06 16:24 49.01192 2.93077 4330 ft 208 kts 268°
2026-05-06 16:25 49.01072 2.90878 4255 ft 209 kts 268°
2026-05-06 16:25 49.00957 2.88677 4032 ft 208 kts 268°
2026-05-06 16:25 49.00845 2.86479 3763 ft 207 kts 269°
2026-05-06 16:25 49.00734 2.84300 3494 ft 204 kts 268°
2026-05-06 16:26 49.00625 2.82179 3227 ft 197 kts 268°
2026-05-06 16:26 49.00521 2.80138 2967 ft 190 kts 268°
2026-05-06 16:26 49.00454 2.78822 2793 ft 187 kts 268°
2026-05-06 16:26 49.00354 2.76879 2541 ft 181 kts 268°
2026-05-06 16:27 49.00226 2.74396 2222 ft 174 kts 268°
2026-05-06 16:27 49.00132 2.72584 1987 ft 170 kts 268°
2026-05-06 16:27 49.00042 2.70842 1785 ft 159 kts 268°
2026-05-06 16:27 48.99956 2.69198 1549 ft 150 kts 268°
2026-05-06 16:28 48.99902 2.68167 1414 ft 145 kts 268°
2026-05-06 16:28 48.99823 2.66637 1205 ft 142 kts 267°
2026-05-06 16:28 48.99745 2.65142 1009 ft 141 kts 269°
2026-05-06 16:28 48.99667 2.63670 819 ft 139 kts 268°
2026-05-06 16:29 48.99590 2.62202 624 ft 139 kts 270°
2026-05-06 16:29 48.99513 2.60743 447 ft 138 kts 269°
2026-05-06 16:29 48.99441 2.59329 356 ft 119 kts 266°
2026-05-06 16:29 48.99393 2.58386 353 ft 63 kts 266°
2026-05-06 16:30 48.99366 2.57916 356 ft 41 kts 265°
2026-05-06 16:30 48.99351 2.57621 358 ft 39 kts 264°
2026-05-06 16:30 48.99324 2.57127 353 ft 35 kts 266°
2026-05-06 16:30 48.99330 2.56787 356 ft 30 kts 286°
2026-05-06 16:31 48.99458 2.56647 357 ft 18 kts 352°
2026-05-06 16:31 48.99549 2.56633 355 ft 13 kts 355°
2026-05-06 16:31 48.99659 2.56619 359 ft 19 kts 355°
2026-05-06 16:31 48.99793 2.56602 357 ft 19 kts 356°
2026-05-06 16:32 48.99901 2.56551 357 ft 17 kts 308°
2026-05-06 16:32 48.99907 2.56343 354 ft 23 kts 265°
2026-05-06 16:32 48.99895 2.56131 354 ft 21 kts 264°
2026-05-06 16:32 48.99891 2.55969 354 ft 17 kts 273°
2026-05-06 16:33 48.99912 2.55814 360 ft 14 kts 286°
2026-05-06 16:33 48.99965 2.55690 357 ft 14 kts 328°
2026-05-06 16:33 49.00061 2.55641 354 ft 15 kts 345°
2026-05-06 16:34 49.00263 2.55552 358 ft 15 kts 343°
2026-05-06 16:34 49.00368 2.55506 357 ft 16 kts 344°
2026-05-06 16:34 49.00479 2.55459 361 ft 17 kts 345°
2026-05-06 16:34 49.00595 2.55408 355 ft 18 kts 343°
2026-05-06 16:35 49.00708 2.55396 357 ft 16 kts 32°
2026-05-06 16:35 49.00735 2.55551 358 ft 15 kts 83°
2026-05-06 16:35 49.00748 2.55712 354 ft 15 kts 83°
2026-05-06 16:35 49.00762 2.55872 354 ft 15 kts 82°
2026-05-06 16:36 49.00776 2.56033 354 ft 15 kts 82°
2026-05-06 16:36 49.00791 2.56189 357 ft 15 kts 82°
2026-05-06 16:36 49.00806 2.56345 354 ft 15 kts 81°
2026-05-06 16:36 49.00820 2.56500 354 ft 15 kts 83°
2026-05-06 16:37 49.00829 2.56655 354 ft 15 kts 85°
2026-05-06 16:37 49.00837 2.56815 354 ft 15 kts 85°
2026-05-06 16:37 49.00846 2.56973 354 ft 15 kts 85°
2026-05-06 16:37 49.00853 2.57097 362 ft 11 kts 85°
2026-05-06 16:38 49.00838 2.57196 364 ft 9 kts 139°
2026-05-06 16:38 49.00784 2.57236 362 ft 8 kts 136°
2026-05-06 16:38 49.00769 2.57311 356 ft 7 kts 115°
2026-05-06 16:38 49.00756 2.57377 354 ft 5 kts 113°
2026-05-06 16:39 49.00737 2.57393 359 ft 0 kts 169°
2026-05-06 16:39 49.00719 2.57397 360 ft 4 kts 176°
2026-05-06 16:39 49.00715 2.57397 359 ft 0 kts 178°
2026-05-06 16:39 49.00714 2.57397 359 ft 0 kts 179°